Weather History for KDMA - December, 2013

Change the Weather History Date:

Sunday, December 8, 2013

  Actual Average Record
Temperature  
Mean Temperature 48 °F -  
Max Temperature 54 °F 65 °F 83 °F (1981)
Min Temperature 41 °F 39 °F 20 °F (1978)
Degree Days  
Heating Degree Days 18    
Moisture  
Dew Point 36 °F    
Average Humidity 64    
Maximum Humidity 77    
Minimum Humidity 50    
Precipitation  
Precipitation 0.00 in - - ()
Sea Level Pressure  
Sea Level Pressure 30.02 in    
Wind  
Wind Speed 7 mph (WSW)    
Max Wind Speed 10 mph    
Max Gust Speed -    
Visibility 10 miles    
Events      
Averages and records for this station are not official NWS values.
T = Trace of Precipitation, MM = Missing Value Source: NWS Daily Summary

Daily Weather History Graph

Daily Weather History Graph

Search for Another Location

Airport or City:

Trip Planner

Search our weather history database for the weather conditions in past years. The results will help you decide how hot, cold, wet, or windy it might be!

Date:

Astronomy

Dec. 08, 2013 Rise Set
Actual Time 7:12 AM MST 5:18 PM MST
Civil Twilight 6:45 AM MST 5:45 PM MST
Nautical Twilight 6:14 AM MST 6:16 PM MST
Astronomical Twilight 5:45 AM MST 6:46 PM MST
Moon 11:51 AM MST (12/8) 11:53 PM MST (12/8)
Length of Visible Light 11h 00m
Length of Day
10h 06m
Waxing Crescent, 40% of the Moon is Illuminated
Dec 8
Waxing Crescent
Dec 9
First Quarter
Dec 17
Full
Dec 25
Last Quarter
Jan 1
New

Hourly Weather History & Observations

Time (MST) Temp. Windchill Dew Point Humidity Pressure Visibility Wind Dir Wind Speed Gust Speed Precip Events Conditions
12:58 AM 44.6 °F 41.4 °F 33.4 °F 65% 30.01 in 10.0 mi SSW 5.8 mph - N/A   Clear
1:58 AM 45.5 °F 40.8 °F 34.5 °F 65% 30.01 in 10.0 mi SW 9.2 mph - N/A   Clear
2:58 AM 44.2 °F 38.8 °F 35.1 °F 70% 30.01 in 10.0 mi SSW 10.4 mph - N/A   Clear
3:58 AM 43.7 °F 39.1 °F 35.1 °F 72% 30.01 in 10.0 mi SSW 8.1 mph - N/A   Overcast
4:58 AM 43.0 °F 37.7 °F 35.1 °F 74% 30.01 in 10.0 mi SSW 9.2 mph - N/A   Overcast
5:58 AM 42.4 °F 38.1 °F 35.1 °F 75% 30.03 in 10.0 mi SSW 6.9 mph - N/A   Overcast
6:58 AM 41.9 °F 39.0 °F 35.2 °F 77% 30.05 in 10.0 mi SE 4.6 mph - N/A   Overcast
7:58 AM 42.1 °F 37.7 °F 35.4 °F 77% 30.07 in 10.0 mi SE 6.9 mph - N/A   Overcast
8:58 AM 44.6 °F 41.4 °F 35.8 °F 71% 30.07 in 10.0 mi SSE 5.8 mph - N/A   Overcast
9:58 AM 47.8 °F - 36.0 °F 63% 30.09 in 10.0 mi South 4.6 mph - N/A   Mostly Cloudy
10:58 AM 50.9 °F - 36.0 °F 57% 30.09 in 10.0 mi WSW 5.8 mph - N/A   Mostly Cloudy
11:58 AM 51.6 °F - 36.1 °F 56% 30.06 in 10.0 mi West 4.6 mph - N/A   Scattered Clouds
12:58 PM 52.9 °F - 36.0 °F 53% 30.01 in 10.0 mi West 2.3 mph - N/A   Partly Cloudy
1:58 PM 54.5 °F - 36.0 °F 50% 29.99 in 10.0 mi West 4.6 mph - N/A   Mostly Cloudy
2:58 PM 54.7 °F - 36.3 °F 50% 29.99 in 10.0 mi Variable 3.5 mph - N/A   Mostly Cloudy
3:58 PM 54.0 °F - 37.0 °F 53% 29.97 in 10.0 mi NNW 4.6 mph - N/A   Mostly Cloudy
4:58 PM 53.1 °F - 38.3 °F 57% 29.97 in 10.0 mi WNW 2.3 mph - N/A   Overcast
5:58 PM 51.6 °F - 38.3 °F 60% 29.97 in 10.0 mi NNW 5.8 mph - N/A   Mostly Cloudy
6:58 PM 49.6 °F - 38.8 °F 66% 30.00 in 10.0 mi WNW 6.9 mph - N/A   Overcast
7:58 PM 49.3 °F - 41.2 °F 74% 30.03 in 10.0 mi NW 4.6 mph - N/A   Mostly Cloudy
8:58 PM 48.0 °F - 39.9 °F 74% 30.04 in 10.0 mi WNW 8.1 mph - N/A   Clear
9:58 PM 46.9 °F - 38.5 °F 72% 30.02 in 10.0 mi WNW 10.4 mph - N/A   Scattered Clouds
10:58 PM 45.9 °F 40.8 °F 32.4 °F 59% 30.04 in 10.0 mi WNW 10.4 mph - N/A   Scattered Clouds
11:58 PM 44.4 °F 40.5 °F 30.0 °F 57% 30.05 in 10.0 mi WNW 6.9 mph - N/A   Mostly Cloudy